Location: Dürabuch
(48.2640°N, 11.2185°E)
Time: 02:01:12
(UTC+00:00)

SAR-Lupe-1 - Pass Details

Date: 23 May 2024
Orbit: 479 x 482 km, 98.1° (Epoch: 04 May)

Event Time Altitude Azimuth Distance (km) Brightness Sun altitude
Rises 02:31:52 0° 9° (N) 2,553 8.7 -7.9°
Reaches altitude 10° 02:33:58 10° 5° (N) 1,668 7.6 -7.6°
Maximum altitude 02:37:28 53° 288° (WNW) 596 4.3 -7.2°
Drops below altitude 10° 02:40:56 10° 211° (SSW) 1,655 6.2 -6.8°
Enters shadow 02:41:25 - 209° (SSW) 1,854 6.4 -6.7°
